Location: Unspecified
(0.0000°N, 0.0000°E)
Time: 08:47:59
(UTC+02:00)

USA 116 - Visible Passes

Search period start: 07 July 2015 00:00
Search period end: 17 July 2015 00:00
Orbit: 405 x 834 km, 97.9° (Epoch: 18 November)

Date Brightness Start Highest point End Pass type
(mag) Time Alt. Az. Time Alt. Az. Time Alt. Az.
07 Jul 6.6 05:42:34 10° SE 05:46:39 24° E 05:51:00 10° NNE visible
07 Jul 5.5 07:18:11 10° SSW 07:22:24 24° W 07:26:33 10° NW visible
08 Jul 6.0 05:56:20 10° SE 06:01:04 35° E 06:05:59 10° NNE visible
08 Jul 5.9 07:33:33 10° SW 07:36:51 16° W 07:39:54 10° WNW visible
09 Jul 5.2 06:10:20 10° SSE 06:15:28 53° ENE 06:20:43 10° N visible
10 Jul 4.6 06:24:33 10° SSE 06:29:52 80° E 06:35:15 10° N visible
11 Jul 4.4 06:38:57 10° S 06:44:15 70° WSW 06:49:36 10° NNW visible
12 Jul 7.4 05:21:01 10° E 05:22:52 12° E 05:25:10 10° NE visible
12 Jul 4.7 06:53:31 10° S 06:58:39 46° WSW 07:03:45 10° NNW visible
13 Jul 7.0 05:33:47 10° ESE 05:37:18 19° E 05:41:04 10° NE visible
13 Jul 5.2 07:08:19 10° SSW 07:13:04 31° W 07:17:42 10° NW visible
14 Jul 6.4 05:47:19 10° SE 05:51:45 28° E 05:56:16 10° NNE visible
14 Jul 5.7 07:23:23 10° SSW 07:27:29 21° W 07:31:20 10° NW visible
15 Jul 5.7 06:01:10 10° SSE 06:06:10 41° E 06:11:08 10° N visible
15 Jul 6.1 07:38:58 10° SW 07:41:54 14° W 07:44:27 10° WNW visible
16 Jul 5.0 06:15:15 10° SSE 06:20:34 61° E 06:25:46 10° N visible
